Regional Weather Roundup
Issued by NWS

Home | Current Version | Previous Version | Graphics & Text | Print | Product List | Glossary On
Versions: 1 2 3 4 5 6 7 8 9 10 11 12 13 14 15 16 17 18 19 20 21 22 23 24 25 26 27 28 29 30 31 32 33 34 35 36 37 38 39 40 41 42 43 44 45 46 47 48 49 50
000
ASUS45 KBOI 260010
RWRID
WEATHER ROUNDUP FOR IDAHO
NATIONAL WEATHER SERVICE BOISE ID
600 PM MDT FRI JUL 25 2014

NOTE: "FAIR" INDICATES FEW OR NO CLOUDS BELOW 12000 FEET
WITH NO SIGNIFICANT WEATHER AND/OR OBSTRUCTIONS TO VISIBILITY

IDZ012-014-260100-
SOUTHWEST IDAHO


CITY           SKY/WX    TMP DP  RH WIND       PRES   REMARKS
BOISE          SUNNY     84  29  13 NW10      30.00F
CALDWELL       SUNNY     84  37  18 N7        30.02F
MOUNTAIN HOME  SUNNY     87  29  12 NW16G23   29.98F
$$

IDZ016-017-260100-
SOUTHCENTRAL IDAHO


CITY           SKY/WX    TMP DP  RH WIND       PRES   REMARKS
BURLEY         SUNNY     81  30  15 W10       30.02F
JEROME         SUNNY     83  31  15 SW9       30.03F
TWIN FALLS     SUNNY     85  29  13 NW10      30.04F
$$

IDZ019>023-260100-
SOUTHEAST IDAHO


CITY           SKY/WX    TMP DP  RH WIND       PRES   REMARKS
IDAHO FALLS    SUNNY     83  31  15 S20G28    30.03F
POCATELLO      SUNNY     84  27  12 SW15      30.05F
REXBURG        SUNNY     80  29  15 S15       30.04F
$$

IDZ006-010-011-018-031-032-260100-
CENTRAL IDAHO MOUNTAINS


CITY           SKY/WX    TMP DP  RH WIND       PRES   REMARKS
MCCALL         SUNNY     76  23  14 VRB5      30.10F
HAILEY         MOSUNNY   81  30  16 SW9G24      N/A
STANLEY          N/A     75  22  13 W8G22     30.16S
SALMON         SUNNY     82  30  15 N12       29.94F
CHALLIS        SUNNY     84   8   5 SW13      30.01S
$$

IDZ002-004-006-007-026-260100-
NORTHERN IDAHO


CITY           SKY/WX    TMP DP  RH WIND       PRES   REMARKS
LEWISTON       SUNNY     83  44  25 VRB7      30.01F
LOWELL           N/A     87  44  22 VRB5      29.99S
COEUR D`ALENE  SUNNY     75  43  31 N7G18     30.05S
MULLAN PASS    SUNNY     59  44  57 VRB3      30.19R
$$


USA.gov is the U.S. government's official web portal to all federal, state and local government web resources and services.